Location: Ladrillo (historical)
(32.8195°N, 117.2231°W)
Time: 20:15:49
(UTC+00:00)

Tiangong - Pass Details

Date: 04 October 2021
Orbit: 382 x 385 km, 41.5° (Epoch: 18 October)

Event Time Altitude Azimuth Distance (km) Brightness Sun altitude
Exits shadow 13:16:21 - 306° (NW) 1,784 3.9 -6.9°
Reaches altitude 10° 13:17:21 10° 312° (NW) 1,396 3.4 -6.7°
Maximum altitude 13:20:17 35° 21° (NNE) 633 2.4 -6.1°
Drops below altitude 10° 13:23:13 10° 89° (E) 1,391 5.8 -5.5°
Sets 13:25:23 0° 99° (E) 2,241 7.5 -5.0°
